Location: *
(58.7167°N, 26.1833°E)
Time: 09:35:55
(UTC+00:00)

Cosmos 1346 Rocket - Pass Details

Date: 25 August 2019
Orbit: 519 x 560 km, 81.2° (Epoch: 18 September)

Event Time Altitude Azimuth Distance (km) Brightness Sun altitude
Exits shadow 19:12:27 - 179° (S) 1,928 5.2 -11.2°
Reaches altitude 10° 19:12:52 10° 178° (S) 1,756 5.0 -11.3°
Maximum altitude 19:16:39 56° 100° (E) 630 2.8 -11.6°
Drops below altitude 10° 19:20:28 10° 22° (NNE) 1,780 5.7 -12.0°
Sets 19:22:40 0° 19° (NNE) 2,679 6.7 -12.2°
